227  
AXUS43 KGID 150202  
MISGRI  
 
GID CWA HOURLY WEATHER ROUNDUP  
NATIONAL WEATHER SERVICE HASTINGS NE  
900 PM CDT FRI AUG 14 2020  
 
NOTE: "FAIR" INDICATES FEW OR NO CLOUDS BELOW 12,000 FEET WITH NO  
SIGNIFICANT WEATHER AND/OR OBSTRUCTIONS TO VISIBILITY.  
   
..SOUTH CENTRAL NEBRASKA
 
 
 
CITY SKY/WX TMP DP RH WIND PRES REMARKS  
GRAND ISLAND PTCLDY 76 69 79 N9 30.01R  
KEARNEY CLEAR 72 62 71 N9 30.03R  
HASTINGS MOCLDY 74 65 73 CALM 30.00S  
ORD CLEAR 72 61 68 NE3 30.02R  
YORK CLOUDY 73 70 88 NW8 29.97R  
AURORA MOCLDY 74 71 91 NW6 29.99S  
LEXINGTON CLEAR 74 61 64 NE6 30.05R  
HOLDREGE CLEAR 74 64 69 N6 30.02R  
HEBRON CLOUDY 76 74 93 CALM 29.92F  
   
..NEBRASKA PANHANDLE
 
 
 
CITY SKY/WX TMP DP RH WIND PRES REMARKS  
CHADRON CLEAR 77 44 30 NE8 30.08R  
ALLIANCE CLEAR 72 46 39 N7 30.11R  
SCOTTSBLUFF CLEAR 74 52 46 NE7 30.11R  
SIDNEY N/A 73 45 36 MISG 30.13R  
   
..WESTERN AND NORTH CENTRAL NEBRASKA
 
 
 
CITY SKY/WX TMP DP RH WIND PRES REMARKS  
VALENTINE CLEAR 75 49 39 NE7 30.06R  
AINSWORTH CLEAR 66 59 77 NE6 30.08R  
ONEILL CLEAR 69 60 73 N5 30.05R  
BROKEN BOW CLEAR 72 61 68 NE3 30.05R  
IMPERIAL CLEAR 71 60 68 E5 30.08R  
NORTH PLATTE CLEAR 74 56 53 NE7 30.07R  
MCCOOK CLEAR 73 61 65 NE9 30.04R  
   
..EASTERN NEBRASKA
 
 
 
CITY SKY/WX TMP DP RH WIND PRES REMARKS  
NORFOLK CLEAR 74 62 66 NW9 29.98R  
SO SIOUX CITY PTCLDY 74 68 81 NW7 29.94R  
TEKAMAH MOCLDY 76 71 85 W6 29.94R  
COLUMBUS MOCLDY 74 70 87 N6 29.98R  
ALBION CLEAR 73 64 73 CALM 30.01S  
OMAHA EPPLEY CLOUDY 80 73 79 E3 29.92R  
OFFUTT AFB CLOUDY 76 74 92 CALM 29.92S  
MILLARD CLOUDY 81 73 76 NW7 29.93S  
LINCOLN CLOUDY 80 72 76 N10 29.94R  
NEBRASKA CITY CLOUDY 80 76 87 CALM 29.94R  
BEATRICE CLOUDY 79 73 84 E3 29.93S  
FALLS CITY CLOUDY 81 74 79 SW10 29.89F  
   
..NORTHERN KANSAS
 
 
 
CITY SKY/WX TMP DP RH WIND PRES REMARKS  
GOODLAND CLEAR 70 60 70 N8 30.06R  
HILL CITY CLEAR 80 71 74 N7 29.99R  
NORTON MOCLDY 79 64 61 NE7 30.05R  
PHILLIPSBURG CLEAR 82 64 54 CALM 29.98S  
OBERLIN FAIR 77 64 64 NE9 30.07R  
SMITH CENTER N/A 79 72 78 E13G20 29.99R  
HAYS MOCLDY 84 75 74 SE8 29.96R HX 92  
RUSSELL PTCLDY 83 73 72 SE8 29.94R  
CONCORDIA TSTM 82 75 79 S10 29.95F  
SALINA PTCLDY 87 72 60 E8 29.94R HX 93  
TOPEKA MOCLDY 82 73 74 NE5 29.97R  
 
CLICK HERE TO GO TO PREVIOUS BULLETINS.

The Nexlab NE Page
The Nexlab KS Page Main Text Page